Weather observations for the past three days for
Mcguire Air Force Base
Imperial (Metric)
Date Time (edt) Wind (mph) Vis. (mi.) Weather Sky Cond. Temperature (ºF) Relative Humidity Wind Chill (°F) Heat Index (°F) Pressure Precipitation (in)
Air Dwpt 6 hour altimeter (in) sea level (mb) 1 hr 3 hr 6 hr
Max. Min.
23 21:55 SW 5 10.00 A Few Clouds FEW210 76.1 69.4 80% 77 30.09 1018.8
23 20:55 S 5 10.00 Overcast OVC200 77.9 68.9 74% 80 30.07 1018.1
23 18:55 S 6 10.00 Partly Cloudy SCT200 82.8 68.4 62% 86 30.05 1017.4
23 17:55 SW 7 10.00 Fair CLR 85.3 67.8 56% 89 30.04 1017.1
23 16:55 SW 7 10.00 A Few Clouds FEW035 84.9 68 57% 88 30.03 1016.8
23 15:55 W 8 10.00 Fair CLR 84.4 68 58% 88 30.03 1016.8
23 14:55 W 10 10.00 Mostly Cloudy SCT031 SCT043 BKN190 83.3 67.8 60% 86 30.03 1016.8
23 13:55 W 10 10.00 Partly Cloudy FEW038 SCT210 84 67.6 85.6 74.7 58% 87 30.03 1016.8
23 12:55 SW 10 G 17 10.00 Partly Cloudy SCT035 85.1 67.6 56% 88 30.02 1016.4
23 11:55 W 10 10.00 Mostly Cloudy BKN024 BKN036 81.5 69.4 67% 85 30.02 1016.4
23 10:55 W 9 10.00 Overcast BKN019 OVC036 79.7 70.2 73% 83 30.01 1016.1
23 09:55 W 7 10.00 Overcast FEW017 SCT024 OVC035 78.3 70.3 77% 81 30 1015.7
23 08:55 W 10 10.00 Overcast BKN010 BKN014 OVC023 77 71.8 84% 78 29.99 1015.4
23 06:55 S 6 10.00 Mostly Cloudy FEW007 BKN029 73 71.2 94% 29.96 1014.4
23 05:55 S 6 10.00 Overcast OVC011 72.1 70.3 94% 29.95 1014.1
23 05:00 S 3 10.00 Overcast OVC014 72.3 70.2 93% 29.93 1013.4
23 03:55 Calm 10.00 Overcast BKN019 OVC026 71.8 70 94% 29.93 1013.4
23 02:55 Calm 10.00 Overcast OVC029 72.3 70.2 93% 29.95 1014.1
23 01:55 Calm 10.00 Light Drizzle SCT019 OVC032 72.7 70.2 76.3 72 92% 29.97 1014.7 0.12
23 00:55 Calm 10.00 Overcast BKN027 OVC035 72.3 70.7 95% 29.96 1014.4
22 23:55 Calm 10.00 Overcast BKN028 OVC034 72.7 70.9 94% 29.96 1014.4
22 22:55 Calm 9.00 Light Rain FEW002 SCT010 BKN028 OVC038 72.7 70.2 92% 29.98 1015.1 0.12 0.12
22 21:55 E 5 10.00 Light Rain OVC039 74.8 71.6 90% 29.99 1015.4
22 20:55 E 5 10.00 Overcast BKN011 OVC060 75.4 72.9 92% 75 29.98 1015.1
22 19:55 S 5 10.00 Overcast OVC070 76.3 72.3 83.7 76.3 88% 77 29.99 1015.4
22 18:55 SE 5 10.00 Overcast SCT012 BKN080 OVC100 77.2 72.7 86% 79 29.99 1015.4
22 17:55 SE 7 10.00 Mostly Cloudy FEW015 SCT100 BKN130 78.4 72.9 83% 81 29.99 1015.4
22 16:55 SE 5 10.00 Light Rain SCT065 BKN100 BKN120 78.1 72.5 83% 81 30.01 1016.1
22 15:55 SE 9 10.00 Light Drizzle BKN120 OVC150 79 69.1 72% 82 30.02 1016.4
22 14:55 SE 12 10.00 Mostly Cloudy FEW120 SCT150 BKN200 81.5 67.6 63% 84 30.02 1016.4
22 13:55 S 10 10.00 Mostly Cloudy FEW140 SCT160 BKN190 83.1 65.7 84.7 73 56% 85 30.04 1017.1
22 12:55 SE 9 10.00 Partly Cloudy FEW120 FEW160 SCT180 SCT220 84 68.5 60% 87 30.05 1017.4
22 11:55 SE 6 10.00 Mostly Cloudy FEW160 SCT180 BKN200 81.1 71.2 72% 85 30.07 1018.1
22 10:55 SE 6 10.00 Partly Cloudy FEW017 SCT200 80.6 72 75% 85 30.07 1018.1
22 09:55 S 7 10.00 Partly Cloudy SCT210 77.9 71.6 81% 80 30.07 1018.1
22 08:55 S 7 10.00 Partly Cloudy SCT190 75.7 70.9 85% 76 30.07 1018.1
22 07:55 S 3 10.00 Mostly Cloudy BKN013 72.9 69.1 72.9 68.2 88% 30.07 1018.1
22 06:55 Calm 10.00 Partly Cloudy SCT018 69.6 67.5 93% 30.07 1018.2
22 05:55 Calm 10.00 Fair CLR 68.9 66.7 93% 30.06 1017.8
22 04:55 Calm 10.00 Fair CLR 69.6 66.9 91% 30.06 1017.8
22 03:55 Calm 10.00 Mostly Cloudy BKN110 70.2 67.1 90% 30.05 1017.5
22 02:55 S 3 10.00 Fair CLR 70.2 66.7 89% 30.05 1017.5
22 01:55 Calm 10.00 Overcast OVC095 70.9 67.5 73.4 70.9 89% 30.07 1018.1
22 00:55 S 5 10.00 Partly Cloudy SCT095 71.2 67.8 89% 30.07 1018.1
21 23:55 S 3 10.00 Overcast OVC100 72.1 68.7 89% 30.06 1017.8
21 22:55 Calm 10.00 A Few Clouds FEW100 FEW140 72.7 70.2 92% 30.06 1017.8
21 21:55 S 5 10.00 Overcast OVC070 73 70.5 92% 30.05 1017.4
21 20:55 Calm 10.00 Light Rain OVC065 73 70.2 91% 30.03 1016.8
21 19:55 SW 6 10.00 Overcast BKN070 BKN085 OVC100 73.6 69.8 81.3 72.7 88% 30.02 1016.4 0.37
21 18:55 SE 6 10.00 Overcast SCT080 OVC110 73.9 70.5 89% 30.01 1016.1
21 17:55 S 8 10.00 Light Rain FEW075 OVC100 74.5 71.1 89% 30 1015.8 0.01
21 16:55 SE 7 10.00 Light Rain FEW002 BKN060 BKN075 OVC100 74.1 67.8 81% 30 1015.8 0.08 0.36
21 15:55 SE 7 10.00 Mostly Cloudy BKN070 BKN100 79.2 70.9 76% 82 30 1015.8
21 14:55 SE 9 10.00 A Few Clouds FEW190 80.2 72 76% 84 30.01 1016.1 0.28
21 13:55 W 17 G 21 6.00 Heavy Rain SCT003 SCT038 BKN048 BKN065 OVC100 77.4 70.7 86.2 74.5 80% 79 30.02 1016.4 0.07 0.07
21 12:55 SE 3 10.00 Mostly Cloudy SCT046 BKN080 BKN090 86 66.7 53% 89 30.01 1016.1
21 11:55 W 6 10.00 Mostly Cloudy SCT032 BKN055 BKN220 84.4 68 58% 88 30.02 1016.4
21 10:55 W 3 10.00 Mostly Cloudy SCT028 BKN050 83.1 67.8 60% 86 30.02 1016.4
21 09:55 NW 5 10.00 Fair CLR 81.1 68.2 65% 84 30.03 1016.8
21 08:55 W 6 10.00 Fair CLR 78.3 68.9 73% 81 30.03 1016.8
21 07:55 Calm 10.00 Fair CLR 74.3 68 74.7 64.2 81% 30.03 1016.8
21 06:55 Calm 10.00 Fair CLR 68.2 65.7 92% 30.02 1016.4
21 05:55 Calm 10.00 Fair CLR 64.6 62.2 92% 30.01 1016.1
21 04:55 Calm 10.00 Fair CLR 65.7 63.9 94% 30 1015.8
21 03:55 Calm 10.00 Fair CLR 66.4 64.2 93% 30 1015.8
21 02:55 Calm 10.00 Fair CLR 67.8 65.3 92% 30.02 1016.4
21 01:55 Calm 10.00 Fair CLR 67.8 65.1 75.7 67.6 91% 30.01 1016.1
21 00:55 Calm 10.00 Mostly Cloudy BKN200 70.3 65.7 85% 30.02 1016.4
20 23:55 SW 3 10.00 A Few Clouds FEW210 71.6 66.4 84% 30.03 1016.8
20 22:55 S 5 10.00 Mostly Cloudy SCT180 BKN210 71.6 66.7 85% 30.05 1017.4
Date Time (edt) Wind (mph) Vis. (mi.) Weather Sky Cond. Air Dwpt Max. Min. Relative Humidity Wind Chill (°F) Heat Index (°F) altimeter (in) sea level (mb) 1 hr 3 hr 6 hr
6 hour
Temperature (ºF) Pressure Precipitation (in)